Springfield, OH

7:42 PM EST on February 23, 2017 (GMT -0500)
Springfield-Beckley Municipal

Weather History for KSGH - October, 2013

Change the Weather History Date:

Tuesday, October 29, 2013

  Actual Average (KFFO) Record (KFFO)
Temperature  
Mean Temperature 44 °F -  
Max Temperature 57 °F 58 °F 80 °F (1999)
Min Temperature 32 °F 39 °F 28 °F (2007)
Degree Days  
Heating Degree Days 20    
Moisture  
Dew Point 37 °F    
Average Humidity 88    
Maximum Humidity 100    
Minimum Humidity 49    
Precipitation  
Precipitation 0.00 in - - ()
Sea Level Pressure  
Sea Level Pressure 30.34 in    
Wind  
Wind Speed 5 mph (SE)    
Max Wind Speed 8 mph    
Max Gust Speed -    
Visibility 4 miles    
Events Fog    
Averages and records for this station are not official NWS values.
T = Trace of Precipitation, MM = Missing Value Source: NWS Daily Summary

Daily Weather History Graph

Daily Weather History Graph

Search for Another Location

Airport or City:

Trip Planner

Search our weather history database for the weather conditions in past years. The results will help you decide how hot, cold, wet, or windy it might be!

Date:

Astronomy

Oct. 29, 2013 Rise Set
Actual Time 8:01 AM EDT 6:36 PM EDT
Civil Twilight 7:33 AM EDT 7:04 PM EDT
Nautical Twilight 7:01 AM EDT 7:36 PM EDT
Astronomical Twilight 6:29 AM EDT 8:07 PM EDT
Moon 2:50 AM EDT (10/29) 3:49 PM EDT (10/29)
Length of Visible Light 11h 31m
Length of Day
10h 35m
Waning Crescent, 25% of the Moon is Illuminated
Oct 29
Waning Crescent
Nov 3
New
Nov 10
First Quarter
Nov 17
Full
Nov 25
Last Quarter

Hourly Weather History & Observations

Time (EDT) Temp. Windchill Dew Point Humidity Pressure Visibility Wind Dir Wind Speed Gust Speed Precip Events Conditions
12:56 AM 37.9 °F 33.5 °F 36.0 °F 93% 30.34 in 7.0 mi ESE 5.8 mph - N/A   Clear
1:56 AM 36.9 °F 32.2 °F 36.0 °F 97% 30.34 in 5.0 mi ESE 5.8 mph - N/A   Clear
2:56 AM 36.0 °F 32.1 °F 34.9 °F 96% 30.35 in 3.0 mi SE 4.6 mph - N/A   Clear
3:56 AM 36.0 °F 33.3 °F 36.0 °F 100% 30.34 in 2.5 mi SSE 3.5 mph - N/A   Clear
4:33 AM 35.6 °F 31.7 °F 35.6 °F 100% 30.33 in 1.2 mi SE 4.6 mph - N/A   Clear
4:39 AM 35.6 °F 31.7 °F 33.8 °F 93% 30.33 in 0.8 mi SE 4.6 mph - N/A   Clear
4:56 AM 34.0 °F 29.8 °F 34.0 °F 100% 30.35 in 3.0 mi SE 4.6 mph - N/A   Clear
5:29 AM 35.6 °F 31.7 °F 35.6 °F 100% 30.34 in 2.5 mi SE 4.6 mph - N/A   Clear
5:56 AM 34.0 °F 29.8 °F 34.0 °F 100% 30.36 in 2.0 mi SE 4.6 mph - N/A   Clear
6:42 AM 33.8 °F 28.6 °F 33.8 °F 100% 30.35 in 1.8 mi ESE 5.8 mph - N/A   Clear
6:56 AM 32.9 °F 27.5 °F 32.9 °F 100% 30.38 in 2.0 mi ESE 5.8 mph - N/A   Clear
7:03 AM 33.8 °F 28.6 °F 33.8 °F 100% 30.36 in 1.5 mi SE 5.8 mph - N/A   Clear
7:08 AM 33.8 °F 29.6 °F 33.8 °F 100% 30.36 in 1.0 mi SE 4.6 mph - N/A   Clear
7:20 AM 33.8 °F 29.6 °F 33.8 °F 100% 30.36 in 1.5 mi SE 4.6 mph - N/A   Clear
7:28 AM 33.8 °F 29.6 °F 33.8 °F 100% 30.36 in 1.0 mi SE 4.6 mph - N/A   Clear
7:31 AM 33.8 °F 29.6 °F 33.8 °F 100% 30.36 in 0.5 mi SE 4.6 mph - N/A Fog Fog
7:40 AM 33.8 °F 28.6 °F 33.8 °F 100% 30.36 in 0.2 mi SE 5.8 mph - 0.00 in Fog Fog
7:56 AM 32.0 °F 25.6 °F 32.0 °F 100% 30.38 in 0.2 mi East 6.9 mph - 0.00 in Fog Fog
8:37 AM 33.8 °F 28.6 °F 33.8 °F 100% 30.36 in 0.5 mi ESE 5.8 mph - 0.00 in Fog Fog
8:56 AM 34.9 °F 30.8 °F 34.9 °F 100% 30.39 in 0.8 mi SE 4.6 mph - 0.00 in   Clear
9:05 AM 35.6 °F 31.7 °F 35.6 °F 100% 30.37 in 1.0 mi SE 4.6 mph - N/A   Clear
9:12 AM 37.4 °F 32.8 °F 37.4 °F 100% 30.37 in 1.2 mi SE 5.8 mph - N/A   Clear
9:25 AM 39.2 °F 35.0 °F 39.2 °F 100% 30.38 in 1.8 mi ESE 5.8 mph - N/A   Clear
9:32 AM 41.0 °F 36.4 °F 41.0 °F 100% 30.37 in 2.5 mi East 6.9 mph - N/A   Clear
9:46 AM 42.8 °F 38.0 °F 42.8 °F 100% 30.37 in 3.0 mi East 8.1 mph - N/A   Clear
9:56 AM 43.9 °F 39.9 °F 41.9 °F 93% 30.39 in 4.0 mi East 6.9 mph - N/A   Clear
10:56 AM 48.9 °F - 43.0 °F 80% 30.40 in 6.0 mi ESE 6.9 mph - N/A   Haze
11:56 AM 52.9 °F - 41.0 °F 64% 30.39 in 6.0 mi SSE 3.5 mph - N/A   Haze
12:56 PM 55.9 °F - 39.9 °F 55% 30.37 in 7.0 mi SE 4.6 mph - N/A   Clear
1:56 PM 56.8 °F - 39.9 °F 53% 30.35 in 7.0 mi SE 5.8 mph - N/A   Clear
2:56 PM 57.9 °F - 38.8 °F 49% 30.31 in 7.0 mi SE 5.8 mph - N/A   Clear
3:56 PM 56.8 °F - 38.8 °F 51% 30.29 in 7.0 mi SSE 5.8 mph - N/A   Clear
4:56 PM 55.9 °F - 39.9 °F 55% 30.29 in 7.0 mi SE 4.6 mph - N/A   Clear
5:56 PM 52.9 °F - 41.9 °F 66% 30.28 in 7.0 mi SE 4.6 mph - N/A   Clear
6:56 PM 50.0 °F - 38.8 °F 66% 30.30 in 8.0 mi Calm Calm - N/A   Clear
7:56 PM 45.9 °F 43.6 °F 41.0 °F 83% 30.30 in 8.0 mi SSE 4.6 mph - N/A   Clear
8:56 PM 46.9 °F - 41.0 °F 80% 30.28 in 8.0 mi SE 4.6 mph - N/A   Mostly Cloudy
9:56 PM 47.8 °F - 41.9 °F 80% 30.26 in 8.0 mi SE 5.8 mph - N/A   Overcast
10:56 PM 48.9 °F - 41.9 °F 77% 30.26 in 8.0 mi SSE 3.5 mph - N/A   Overcast
11:56 PM 50.0 °F - 41.0 °F 71% 30.25 in 8.0 mi SSE 4.6 mph - 0.00 in   Mostly Cloudy